Flag for Chile Weather past 2 weeks in Antofagasta, Chile

Now
64 °F

Passing clouds.


Feels Like: 64 °F
Forecast: 63 / 73 °F
Wind: 8 mph from South

Location: Antofagasta Airport

Current Time: Mar 6, 2015 at 11:25:01 PM

Latest Report: Mar 6, 2015 at 11:00 PM


Visibility: N/A

Pressure: 29.95 "Hg

Humidity: 78%

Dew point: 57 °F

Location of AntofagastaLocation

Historic Weather in Antofagasta — Graph

°F

Antofagasta temperature yesterday

Maximum temperature yesterday: 72 °F (at 2:00 PM)
Minimum temperature yesterday: 61 °F (at 7:00 AM)
Average temperature yesterday: 66 °F

Past Weeks' High & Low Weather Summary

 TemperatureHumidityPressure
High75 °F (Feb 20, 12:00 PM)94% (Feb 23, 5:00 AM)29.98 "Hg (Feb 23, 5:00 AM)
Low59 °F (Mar 6, 8:00 AM)41% (Feb 27, 2:00 PM)29.33 "Hg (Mar 3, 4:00 PM)
Average68 °F71%29.91 "Hg
* Reported Feb 19 9:00 PM — Mar 6 9:00 PM, Antofagasta, Weather by CustomWeather, © 2015

Note: Actual official high and low records may vary slightly from our data, if they occured in-between our weather recording intervals... More about our weather records

Advertising

Antofagasta weather history for previous 24 hours

 ConditionsComfort  
Time TempWeatherWind HumidityBarometerVisibility
9:00 PM
Fri, Mar 6
66 °FPassing clouds.10 mph73%29.92 "HgN/A
8:00 PM66 °FPassing clouds.13 mph73%29.89 "HgN/A
7:00 PM68 °FPassing clouds.15 mph69%29.89 "HgN/A
6:00 PM68 °FPassing clouds.15 mph69%29.86 "HgN/A
5:00 PM68 °FPassing clouds.16 mph64%29.86 "HgN/A
4:00 PM70 °FPassing clouds.16 mph60%29.86 "HgN/A
3:00 PM70 °FPassing clouds.15 mph60%29.89 "HgN/A
2:00 PM70 °FPassing clouds.14 mph60%29.92 "HgN/A
1:00 PM70 °FPassing clouds.13 mph64%29.92 "HgN/A
12:00 PM70 °FPassing clouds.8 mph57%29.92 "HgN/A
11:00 AM68 °FPassing clouds.6 mph64%29.92 "HgN/A
10:00 AM66 °FPassing clouds.5 mph73%29.92 "HgN/A
9:00 AM63 °FSunny.2 mph77%29.89 "Hg10 mi
8:00 AM59 °FSunny.5 mph82%29.89 "Hg10 mi
7:00 AM61 °FClear.3 mph77%29.89 "Hg10 mi
6:00 AM61 °FClear.2 mph77%29.86 "Hg10 mi
5:00 AM61 °FClear.No wind77%29.89 "Hg10 mi
4:00 AM63 °FClear.1 mph83%29.89 "Hg10 mi
3:00 AM61 °FClear.2 mph83%29.89 "Hg10 mi
2:00 AM64 °FPassing clouds.3 mph73%29.89 "HgN/A
1:00 AM64 °FClear.No wind83%29.89 "Hg10 mi
12:00 AM64 °FPassing clouds.5 mph83%29.89 "HgN/A
11:00 PM
Thu, Mar 5
64 °FPassing clouds.7 mph78%29.89 "HgN/A
Weather by CustomWeather, © 2015

See weather overviewHow to use our weather pages